Stündliche Wetter Abischthof

Heute, 24 Juni, Donnerstag

Zeit Temperatur Niederschläge Wind Luftdruck Luftfeuchtigkeit
00:00 +16°C° 1.2 mm 1 m/S 727 mmHg 98%
01:00 +15°C° 1.2 mm 0 m/S 727 mmHg 98%
02:00 +15°C° 0.2 mm 0 m/S 726 mmHg 98%
03:00 +14°C° 0.2 mm 0 m/S 726 mmHg 98%
04:00 +14°C° 0.2 mm 0 m/S 726 mmHg 98%
05:00 +15°C° 0.1 mm 0 m/S 726 mmHg 97%
06:00 +15°C° 0.1 mm 0 m/S 726 mmHg 96%
07:00 +16°C° 0.1 mm 0 m/S 726 mmHg 94%
08:00 +17°C° 0.3 mm 0 m/S 726 mmHg 88%
09:00 +19°C° 0.3 mm 0 m/S 726 mmHg 82%
10:00 +20°C° 0.3 mm 0 m/S 726 mmHg 75%
11:00 +23°C° 0.8 mm 1 m/S 726 mmHg 74%
12:00 +23°C° 0.8 mm 1 m/S 726 mmHg 73%
13:00 +24°C° 0.8 mm 1 m/S 726 mmHg 72%
14:00 +23°C° 1.6 mm 1 m/S 726 mmHg 77%
15:00 +21°C° 1.6 mm 2 m/S 725 mmHg 82%
16:00 +20°C° 1.6 mm 2 m/S 725 mmHg 87%
17:00 +18°C° 4.7 mm 3 m/S 726 mmHg 90%
18:00 +17°C° 4.7 mm 4 m/S 727 mmHg 93%
19:00 +14°C° 4.7 mm 4 m/S 727 mmHg 97%
20:00 +14°C° 1.1 mm 3 m/S 728 mmHg 97%
21:00 +14°C° 1.1 mm 2 m/S 728 mmHg 97%
22:00 +14°C° 1.1 mm 1 m/S 728 mmHg 97%
23:00 +14°C° 0 mm 1 m/S 728 mmHg 97%

Morgen, 25 Juni, Freitag

Zeit Temperatur Niederschläge Wind Luftdruck Luftfeuchtigkeit
00:00 +14°C° 0 mm 1 m/S 728 mmHg 97%
01:00 +14°C° 0 mm 1 m/S 728 mmHg 97%
02:00 +13°C° 0 mm 1 m/S 728 mmHg 97%
03:00 +13°C° 0 mm 1 m/S 728 mmHg 97%
04:00 +13°C° 0 mm 1 m/S 728 mmHg 97%
05:00 +13°C° 0 mm 1 m/S 728 mmHg 96%
06:00 +14°C° 0 mm 1 m/S 728 mmHg 95%
07:00 +15°C° 0 mm 1 m/S 728 mmHg 95%
08:00 +15°C° 0.1 mm 1 m/S 728 mmHg 91%
09:00 +16°C° 0.1 mm 1 m/S 728 mmHg 88%
10:00 +18°C° 0.1 mm 1 m/S 728 mmHg 85%
11:00 +19°C° 0.2 mm 1 m/S 728 mmHg 78%
12:00 +19°C° 0.2 mm 2 m/S 727 mmHg 72%
13:00 +21°C° 0.2 mm 2 m/S 727 mmHg 66%
14:00 +21°C° 0.4 mm 2 m/S 727 mmHg 67%
15:00 +21°C° 0.4 mm 2 m/S 727 mmHg 67%
16:00 +21°C° 0.4 mm 2 m/S 727 mmHg 68%
17:00 +21°C° 0.4 mm 1 m/S 727 mmHg 75%
18:00 +20°C° 0.4 mm 1 m/S 727 mmHg 81%
19:00 +19°C° 0.4 mm 1 m/S 727 mmHg 88%
20:00 +18°C° 0.1 mm 1 m/S 727 mmHg 90%
21:00 +15°C° 0.1 mm 1 m/S 727 mmHg 92%
22:00 +14°C° 0.1 mm 1 m/S 728 mmHg 94%
23:00 +14°C° 0 mm 1 m/S 728 mmHg 94%

übermorgen, 26 Juni, Samstag

Zeit Temperatur Niederschläge Wind Luftdruck Luftfeuchtigkeit
00:00 +12°C° 0 mm 0 m/S 727 mmHg 95%
01:00 +12°C° 0 mm 0 m/S 727 mmHg 95%
02:00 +12°C° 0 mm 0 m/S 727 mmHg 95%
03:00 +11°C° 0 mm 0 m/S 727 mmHg 95%
04:00 +11°C° 0 mm 0 m/S 727 mmHg 96%
05:00 +12°C° 0 mm 0 m/S 727 mmHg 95%
06:00 +13°C° 0 mm 0 m/S 727 mmHg 93%
07:00 +14°C° 0 mm 0 m/S 727 mmHg 92%
08:00 +18°C° 0 mm 1 m/S 727 mmHg 83%
09:00 +20°C° 0 mm 1 m/S 727 mmHg 74%
10:00 +22°C° 0 mm 1 m/S 727 mmHg 65%
11:00 +23°C° 0 mm 1 m/S 727 mmHg 61%
12:00 +24°C° 0 mm 1 m/S 727 mmHg 57%
13:00 +25°C° 0 mm 1 m/S 726 mmHg 53%
14:00 +26°C° 0 mm 1 m/S 726 mmHg 52%
15:00 +26°C° 0 mm 1 m/S 726 mmHg 50%
16:00 +26°C° 0 mm 1 m/S 726 mmHg 49%
17:00 +25°C° 0 mm 1 m/S 725 mmHg 58%
18:00 +24°C° 0 mm 1 m/S 725 mmHg 68%
19:00 +23°C° 0 mm 1 m/S 725 mmHg 77%
20:00 +21°C° 0 mm 1 m/S 725 mmHg 82%
21:00 +20°C° 0 mm 1 m/S 725 mmHg 88%
22:00 +18°C° 0 mm 1 m/S 725 mmHg 93%
23:00 +18°C° 0 mm 1 m/S 725 mmHg 94%

27 Juni, Sonntag

Zeit Temperatur Niederschläge Wind Luftdruck Luftfeuchtigkeit
00:00 +16°C° 0 mm 1 m/S 725 mmHg 94%
01:00 +16°C° 0 mm 1 m/S 725 mmHg 95%
02:00 +15°C° 0 mm 1 m/S 724 mmHg 95%
03:00 +15°C° 0 mm 1 m/S 724 mmHg 95%
04:00 +15°C° 0 mm 1 m/S 724 mmHg 95%
05:00 +16°C° 0 mm 1 m/S 724 mmHg 92%
06:00 +16°C° 0 mm 0 m/S 724 mmHg 89%
07:00 +17°C° 0 mm 0 m/S 724 mmHg 85%
08:00 +19°C° 0 mm 0 m/S 724 mmHg 78%
09:00 +23°C° 0 mm 1 m/S 724 mmHg 70%
10:00 +25°C° 0 mm 1 m/S 724 mmHg 62%
11:00 +27°C° 0 mm 1 m/S 724 mmHg 57%
12:00 +28°C° 0 mm 1 m/S 724 mmHg 53%
13:00 +29°C° 0 mm 1 m/S 724 mmHg 48%
14:00 +29°C° 0 mm 2 m/S 723 mmHg 48%
15:00 +30°C° 0 mm 2 m/S 723 mmHg 48%
16:00 +30°C° 0 mm 2 m/S 723 mmHg 48%
17:00 +28°C° 0.2 mm 2 m/S 723 mmHg 59%
18:00 +26°C° 0.2 mm 2 m/S 723 mmHg 70%
19:00 +25°C° 0.2 mm 2 m/S 723 mmHg 81%
20:00 +23°C° 4.3 mm 2 m/S 723 mmHg 86%
21:00 +20°C° 4.3 mm 2 m/S 723 mmHg 91%
22:00 +19°C° 4.3 mm 3 m/S 724 mmHg 97%
23:00 +18°C° 0.8 mm 2 m/S 724 mmHg 96%

28 Juni, Montag

Zeit Temperatur Niederschläge Wind Luftdruck Luftfeuchtigkeit
00:00 +19°C° 0.8 mm 1 m/S 724 mmHg 96%
01:00 +18°C° 0.8 mm 1 m/S 724 mmHg 96%
02:00 +18°C° 0 mm 1 m/S 723 mmHg 96%
03:00 +18°C° 0 mm 1 m/S 723 mmHg 96%
04:00 +16°C° 0 mm 1 m/S 723 mmHg 97%
05:00 +18°C° 0 mm 1 m/S 724 mmHg 96%
06:00 +19°C° 0 mm 1 m/S 724 mmHg 95%
07:00 +19°C° 0 mm 1 m/S 724 mmHg 95%
08:00 +20°C° 0 mm 1 m/S 725 mmHg 92%
09:00 +20°C° 0 mm 2 m/S 725 mmHg 89%
10:00 +20°C° 0 mm 2 m/S 725 mmHg 86%
11:00 +21°C° 0.1 mm 2 m/S 725 mmHg 82%
12:00 +23°C° 0.1 mm 2 m/S 725 mmHg 78%
13:00 +24°C° 0.1 mm 2 m/S 725 mmHg 75%
14:00 +23°C° 0.6 mm 2 m/S 725 mmHg 80%
15:00 +21°C° 0.6 mm 2 m/S 725 mmHg 85%
16:00 +21°C° 0.6 mm 2 m/S 725 mmHg 90%
17:00 +20°C° 2.1 mm 2 m/S 726 mmHg 93%
18:00 +20°C° 2.1 mm 1 m/S 726 mmHg 95%
19:00 +19°C° 2.1 mm 1 m/S 726 mmHg 97%
20:00 +19°C° 0.7 mm 1 m/S 726 mmHg 97%
21:00 +19°C° 0.7 mm 1 m/S 726 mmHg 98%
22:00 +16°C° 0.7 mm 0 m/S 726 mmHg 98%
23:00 +18°C° 0.4 mm 1 m/S 726 mmHg 98%

29 Juni, Dienstag

Zeit Temperatur Niederschläge Wind Luftdruck Luftfeuchtigkeit
00:00 +18°C° 0.4 mm 1 m/S 726 mmHg 98%
01:00 +18°C° 0.4 mm 1 m/S 726 mmHg 98%
02:00 +18°C° 0.3 mm 1 m/S 725 mmHg 98%
03:00 +18°C° 0.3 mm 1 m/S 725 mmHg 98%
04:00 +18°C° 0.3 mm 1 m/S 725 mmHg 98%
05:00 +18°C° 0.1 mm 1 m/S 725 mmHg 96%
06:00 +18°C° 0.1 mm 1 m/S 725 mmHg 95%
07:00 +17°C° 0.1 mm 0 m/S 725 mmHg 94%
08:00 +20°C° 0 mm 1 m/S 725 mmHg 87%
09:00 +21°C° 0 mm 1 m/S 726 mmHg 80%
10:00 +22°C° 0 mm 1 m/S 726 mmHg 73%
11:00 +22°C° 0.3 mm 1 m/S 725 mmHg 76%
12:00 +22°C° 0.3 mm 1 m/S 725 mmHg 79%
13:00 +22°C° 0.3 mm 1 m/S 725 mmHg 83%
14:00 +22°C° 0.7 mm 1 m/S 725 mmHg 86%
15:00 +21°C° 0.7 mm 1 m/S 725 mmHg 88%
16:00 +21°C° 0.7 mm 1 m/S 725 mmHg 91%
17:00 +20°C° 0.8 mm 1 m/S 725 mmHg 93%
18:00 +19°C° 0.8 mm 1 m/S 725 mmHg 95%
19:00 +18°C° 0.8 mm 2 m/S 726 mmHg 97%
20:00 +18°C° 0.9 mm 1 m/S 726 mmHg 97%
21:00 +18°C° 0.9 mm 1 m/S 726 mmHg 98%
22:00 +18°C° 0.9 mm 1 m/S 727 mmHg 98%
23:00 +16°C° 0.3 mm 1 m/S 727 mmHg 98%
Mehr zeigen

Wir brauchen deine Erlaubnis

Meteoprog und unser Service Anbieter werden persönliche Daten aufbewahren, so wie Cookies, Geräte Bezeichnung oder ähnliche Technologien von deinem Gerät und Prozess, so wie Persönliche Daten Inhalte und Werbungen, genauso wie social Media und den Verkehr zu analysieren.

  • Aufbewahrung und/oder Zugang zu deiner Geräte Informationen.

    Cookies, Geräte Bezeichnung oder andere Informationen, können aufbewahrt oder Zugang zu deinem Gerät erhalten, für den Grund, der oben angegeben wird.

  • Personalisierte Werbung und Inhalte, Messungen, Einblick in das Publikum und Produkt Entwicklung.

    Werbungen und Inhalte können personalisiert werden, basierend auf ein Profil. Mehr Daten können besser personalisierte Werbungen und Inhalte hinzufügen. Werbung und Inhalte können gezeigt und gemessen werden. Einblicke über das Publikum, welche die Werbung gesehen haben und den Inhalt, können abgeleitet werden. So wie Daten können genutzt werden, um es zu verbessern oder die Benutzer Erfahrung zu verbessern das System und die Software.

Wenn du “Ich stimme zu” klickst, erlaubst du uns, die Cookies zu benutzen die Geräte Bezeichnung, den Web oder ähnliche Technologien zu benutzen. Deine Settings, können in deinem Gerät bei deinem Browser geändert werden.

Für den bestimmten Zweck, berechtigten Interessen beruhen darauf, mehr als auf den Inhalt. Du kannst mehr darüber in unseren Privaten und Cookie Politik lesen.